Regional Weather Roundup
Issued by NWS

Home | Current Version | Previous Version | Text Only | Print | Product List | Glossary Off
Versions: 1 2 3 4 5 6 7 8 9 10 11 12 13 14 15 16 17 18 19 20 21 22 23 24 25 26 27 28 29 30 31 32 33 34 35 36 37 38 39 40 41 42 43 44 45 46 47 48 49 50

000
ASUS43 KLSX 280807
RWRMO

WEATHER SUMMARY FOR MISSOURI
NATIONAL WEATHER SERVICE SPRINGFIELD MO
300 AM CDT THU AUG 28 2014

NOTE: "FAIR" INDICATES FEW OR NO CLOUDS BELOW 12,000 FEET WITH NO
       SIGNIFICANT WEATHER AND/OR OBSTRUCTIONS TO VISIBILITY.
       CURRENT SKY AND/OR WEATHER CONDITIONS ARE NOT AVAILABLE FOR
       CHILLICOTHE AND FARMINGTON.

MOZ001>031-035>038-043-044-053-054-280900-
...NORTHERN AND WESTERN MISSOURI...

CITY           SKY/WX    TMP DP  RH WIND       PRES   REMARKS
KANSAS CTY INT CLOUDY    75  72  90 SE9       29.99F
KANSAS C DTWN  MOCLDY    78  72  81 E6        29.97F
LEE`S SUMMIT   MOCLDY    75  72  90 E3        30.00F
ST JOSEPH      CLOUDY    73  70  90 CALM      29.98F
CHILLICOTHE      N/A     74  71  91 E3        30.02F
KIRKSVILLE     MOCLDY    71  69  93 E7        30.05F

$$
MOZ066>068-077>081-088>096-101>105-280900-
...SOUTHWEST MISSOURI...

CITY           SKY/WX    TMP DP  RH WIND       PRES   REMARKS
SPRINGFIELD    CLEAR     75  69  81 SE9       30.03F
JOPLIN         CLEAR     75  69  81 S8        30.01S

$$
MOZ032>034-039>042-045>050-055>058-069>072-280900-
...CENTRAL MISSOURI...

CITY           SKY/WX    TMP DP  RH WIND       PRES   REMARKS
COLUMBIA       PTCLDY    70  68  93 SE6       30.03F
JEFFERSON CITY CLEAR     70  68  93 SE3       30.02F
ROLLA          CLEAR     71  66  84 S7        30.03F
SEDALIA        PTCLDY    72  68  87 CALM      30.01F
WHITEMAN AFB   PTCLDY    71  51  48 E3        29.99F
OSAGE BEACH    CLEAR     72  66  83 SE5       30.02F

$$
MOZ051-052-059>065-280900-
...EAST CENTRAL MISSOURI...

CITY           SKY/WX    TMP DP  RH WIND       PRES   REMARKS
ST LOUIS INTL  PTCLDY    73  70  90 CALM      30.05S
SPIRIT OF STL  CLEAR     70  70 100 CALM      30.03S FOG
ST CHARLES     PTCLDY    70  69  97 CALM      30.03S FOG

$$
MOZ072>076-082>087-097>100-106>115-280900-
...SOUTH CENTRAL AND SOUTHEAST MISSOURI...

CITY           SKY/WX    TMP DP  RH WIND       PRES   REMARKS
CAPE GIRARDEAU MOCLDY    74  72  93 CALM      30.03S
FARMINGTON     PTCLDY    70  68  94 CALM      30.07F
POPLAR BLUFF   CLEAR     75  70  84 CALM      30.02S HAZE
WEST PLAINS    CLEAR     70  66  87 CALM      30.08S

$$



USA.gov is the U.S. government's official web portal to all federal, state and local government web resources and services.